Regional Weather Roundup
Issued by NWS

Home | Current Version | Previous Version | Text Only | Print | Product List | Glossary On
Versions: 1 2 3 4 5 6 7 8 9 10 11 12 13 14 15 16 17 18 19 20 21 22 23 24 25 26 27 28 29 30 31 32 33 34 35 36 37 38 39 40 41 42 43 44 45 46 47 48 49 50
000
ASUS43 KMPX 262010
RWRMN
WEATHER ROUNDUP FOR MINNESOTA
NATIONAL WEATHER SERVICE TWIN CITIES/CHANHASSEN MN
300 PM CDT SAT JUL 26 2014


NOTE: "FAIR" INDICATES FEW OR NO CLOUDS BELOW 12,000 FEET WITH NO
SIGNIFICANT WEATHER AND/OR OBSTRUCTIONS TO VISIBILITY. N/A MEANS
CURRENT SKY AND/OR WEATHER CONDITIONS ARE NOT AVAILABLE.

MNZ060>063-068>070-262100-
   Twin Cities Metro

CITY           SKY/WX    TMP DP  RH WIND       PRES   REMARKS
TWIN CITIES    PTSUNNY   84  67  56 SW9       29.81F
ST PAUL        PTSUNNY   83  67  58 SW9       29.81F
CRYSTAL        MOSUNNY   84  66  54 W13       29.80F
BLAINE         MOSUNNY   84  66  54 SW12      29.81
LAKEVILLE      PTSUNNY   81  70  69 W7        29.82F
EDEN PRAIRIE   MOSUNNY   83  69  62 W9        29.81F
SOUTH ST PAUL  PTSUNNY   83  64  52 SW6       29.80F
LAKE ELMO      FAIR      81  70  69 SW10      29.83F
$$
MNZ001>005-007-008-013>017-022>024-027-028-262100-
   Northwest Minnesota

CITY           SKY/WX    TMP DP  RH WIND       PRES   REMARKS
BEMIDJI        PTSUNNY   81  58  46 SW13G23   29.74F
HALLOCK        SUNNY     73  55  53 W18G24    29.71F
ROSEAU         MOSUNNY   73  55  53 W14G24    29.73S
WARROAD        MOSUNNY   73  57  56 SW16G24   29.73R
THIEF RVR FALL MOSUNNY   73  55  53 W21G26    29.77S
CROOKSTON      PTSUNNY   73  57  56 W15G21    29.77S
FOSSTON        SUNNY     75  54  46 W18G26    29.78S
DETROIT LAKES  SUNNY     79  61  53 NW16G25   29.81R
MOORHEAD       MOSUNNY   81  54  39 NW14      29.80S
PARK RAPIDS    MOSUNNY   83  62  49 W20       29.77F
$$
MNZ006-009>011-018-025>026-262100-
   North Central Minnesota

CITY           SKY/WX    TMP DP  RH WIND       PRES   REMARKS
BAUDETTE       MOSUNNY   80  56  43 SW15G24   29.71S
FLAG ISLAND    PTSUNNY   75  57  53 SW18      29.67S
INTL FALLS     PTSUNNY   80  53  39 SW13G18   29.72F
WASKISH        MOSUNNY   79  66  65 W8        29.73F THUNDER
BIG FORK       SUNNY    N/A N/A N/A SW8       29.76F
LONGVILLE      SUNNY     82  59  44 SW6       29.77F
GRAND RAPIDS   MOSUNNY   81  54  39 S8        29.78F
CRANE LAKE     MOSUNNY   79  52  38 CALM      29.76F
ORR            MOSUNNY   81  52  36 W10       29.74F
COOK           MOSUNNY   82  54  36 W8        29.77F
$$
MNZ012-019>021-037-262100-
   Northeast Minnesota

CITY           SKY/WX    TMP DP  RH WIND       PRES   REMARKS
DULUTH         MOSUNNY   83  54  36 W10       29.79F
ELY            MOSUNNY   79  52  38 W9        29.78S
HIBBING        SUNNY     83  53  35 VRB3      29.77F
EVELETH        SUNNY     82  52  34 W6        29.79F
DULUTH HARBOR  SUNNY     86  57  37 SW10      29.76S
TWO HARBORS    SUNNY     82  57  42 W8G16     29.74F
SILVER BAY     SUNNY     82  57  42 W3        29.74F
GRAND MARAIS     N/A     60  50  69 W8        29.73R
G MARAIS ARPRT SUNNY     77  50  38 NW5       29.78F
$$
MNZ029>031-032-039>041-046>048-054>057-064-262100-
   West Central Minnesota

CITY           SKY/WX    TMP DP  RH WIND       PRES   REMARKS
FERGUS FALLS   SUNNY     82  55  39 W16G24    29.79S
WHEATON        SUNNY     81  63  54 W13       29.84S
MORRIS         SUNNY     82  61  47 NW15G26   29.82S
ALEXANDRIA     MOSUNNY   82  65  56 W15       29.83F
ELBOW LAKE     FAIR      80  65  59 W17G23    29.81S
WADENA         MOSUNNY   81  64  57 SW14G22   29.79S
GLENWOOD       SUNNY     82  66  57 W15G23    29.83F
APPLETON       MOSUNNY   84  64  51 W17G25    29.83F
BENSON         SUNNY     84  66  54 NW15G24   29.83R
ORTONVILLE     SUNNY     82  57  42 NW13      29.85R
MADISON        SUNNY     84  70  61 W15G21    29.85S
WILLMAR        FAIR      82  70  65 W15       29.85S
$$
MNZ033>034-036-042>043-049>051-058-059-262100-
   Central Minnesota

CITY           SKY/WX    TMP DP  RH WIND       PRES   REMARKS
ST CLOUD       SUNNY     86  62  44 SW15      29.80F
SAUK CENTRE    MOCLDY    82  66  56 W14G20    29.82S
PAYNESVILLE    PTSUNNY   80  66  61 SW10      29.83S
AITKIN         SUNNY     84  63  48 S9        29.78F
PINE RIVER     SUNNY     82  57  42 SW15      29.81F
BRAINERD       SUNNY     84  54  35 W14G21    29.80F
STAPLES        MOSUNNY   82  61  47 SW14      29.79F
LONG PRAIRIE   PTSUNNY   81  64  57 W9G16     29.82F
LITTLE FALLS   SUNNY     82  54  36 SW10G17   29.80F
LITCHFIELD     SUNNY     82  66  57 W10G16    29.83F
BUFFALO        SUNNY     82  66  59 S6        29.82F
MAPLE LAKE     SUNNY     83  69  62 SW6       29.82F
$$
MNZ037-044-045-052-053-262100-
   East Central Minnesota

CITY           SKY/WX    TMP DP  RH WIND       PRES   REMARKS
PRINCETON      SUNNY     86  57  37 SW6       29.81F
MORA           SUNNY     79  59  50 W9        29.82S
CAMBRIDGE      SUNNY     84  63  48 SW9       29.80F
RUSH CITY      SUNNY     83  62  48 S6        29.81S
MOOSE LAKE     SUNNY     84  59  42 S9        29.77S
HINCKLEY       FAIR      82  63  51 SW9       29.80F
CLOQUET        SUNNY     84  48  28 SW9       29.78F
MCGREGOR       SUNNY     82  55  39 S12       29.79F
$$
MNZ071>073-080-081-089-090-097-098-262100-
   Southwest Minnesota

CITY           SKY/WX    TMP DP  RH WIND       PRES   REMARKS
MONTEVIDEO     MOSUNNY   84  70  61 W15G23    29.85S
GRANITE FALLS  MOSUNNY   81  70  68 W18       29.87S
CANBY          MOSUNNY   85  66  53 W15G24    29.89S
MARSHALL       SUNNY     81  64  57 NW22G28   29.88R
REDWOOD FALLS  SUNNY     84  65  52 W20G26    29.85R
OLIVIA         MOSUNNY   81  66  61 W16G22    29.84S
PIPESTONE      SUNNY     79  68  69 NW10      29.92R
WINDOM         PTSUNNY   82  64  54 W13       29.87R
WORTHINGTON    PTSUNNY   77  68  73 SW10      29.91R
JACKSON        CLOUDY    79  64  61 SW9       29.90R
TRACY          MOSUNNY   82  66  57 NW15      29.88S
SLAYTON        MOSUNNY   80  63  57 W6G18     29.91R
$$
MNZ065>067-074>077-082>085-091>093-262100-
   South Central Minnesota

CITY           SKY/WX    TMP DP  RH WIND       PRES   REMARKS
MANKATO        PTSUNNY   79  64  61 NW10      29.83F
NEW ULM        MOSUNNY   81  66  61 W10       29.84S
ST JAMES       MOSUNNY   82  64  54 NW9       29.84R
FAIRMONT       PTSUNNY   77  61  57 S14       29.88R
GLENCOE        MOSUNNY   84  64  51 SW9       29.82F
FARIBAULT      CLOUDY    84  61  45 W5        29.83F
OWATONNA       CLOUDY    79  64  61 NW9       29.83F
WASECA         CLOUDY    77  63  61 N10       29.84S
ALBERT LEA     CLOUDY    77  64  65 SW7       29.86S
$$
MNZ078>079-086>088-094>096-262100-
   Southeast Minnesota

CITY           SKY/WX    TMP DP  RH WIND       PRES   REMARKS
ROCHESTER      CLOUDY    74  65  73 SW7       29.83F
RED WING       CLOUDY    82  68  61 SW6       29.82F
STANTON        CLOUDY    82  68  63 SW7       29.82F
DODGE CENTER   CLOUDY    73  68  83 N16       29.83F
WINONA         CLOUDY    77  70  78 CALM      29.83F
AUSTIN         CLOUDY    75  68  78 S6        29.83F
PRESTON        CLOUDY    75  72  92 NW3       29.87F
$$
ABBREVIATIONS USED IN REMARKS
   TC - TEMPERATURES IN CELSIUS
  WCI - WIND CHILL INDEX
   HX - HEAT INDEX
  VSB - VISIBILITY
$$



USA.gov is the U.S. government's official web portal to all federal, state and local government web resources and services.